Regional Weather Roundup
Issued by NWS

Home | Current Version | Previous Version | Text Only | Print | Product List | Glossary On
Versions: 1 2 3 4 5 6 7 8 9 10 11 12 13 14 15 16 17 18 19 20 21 22 23 24 25 26 27 28 29 30 31 32 33 34 35 36 37 38 39 40 41 42 43 44 45 46 47 48 49 50
000
ASUS43 KMPX 300910
RWRMN
WEATHER ROUNDUP FOR MINNESOTA
NATIONAL WEATHER SERVICE TWIN CITIES/CHANHASSEN MN
400 AM CDT WED JUL 30 2014


NOTE: "FAIR" INDICATES FEW OR NO CLOUDS BELOW 12,000 FEET WITH NO
SIGNIFICANT WEATHER AND/OR OBSTRUCTIONS TO VISIBILITY. N/A MEANS
CURRENT SKY AND/OR WEATHER CONDITIONS ARE NOT AVAILABLE.

MNZ060>063-068>070-301000-
   Twin Cities Metro

CITY           SKY/WX    TMP DP  RH WIND       PRES   REMARKS
TWIN CITIES    CLEAR     61  56  83 W3        30.06S
ST PAUL        CLEAR     59  57  93 W3        30.06S
CRYSTAL        CLEAR     62  55  77 W5        30.05S
BLAINE         CLEAR     57  57 100 CALM      30.06S
LAKEVILLE      CLEAR     57  55  94 W5        30.06S
EDEN PRAIRIE   CLEAR     62  57  83 NW6       30.06R
SOUTH ST PAUL  CLEAR     59  57  92 CALM      30.06S
LAKE ELMO        N/A     55  55 100 CALM      30.07R FOG
$$
MNZ001>005-007-008-013>017-022>024-027-028-301000-
   Northwest Minnesota

CITY           SKY/WX    TMP DP  RH WIND       PRES   REMARKS
BEMIDJI        CLEAR     55  53  92 W6        30.09S
HALLOCK        CLEAR     55  52  88 CALM      30.10S
ROSEAU         CLEAR     59  54  82 W8        30.08S
WARROAD        CLEAR     57  54  88 W5        30.08S
THIEF RVR FALL CLEAR     59  55  88 NW3       30.11S
CROOKSTON      CLEAR     54  52  94 NW3       30.12R
FOSSTON        CLEAR     50  48  93 CALM      30.12R
DETROIT LAKES  CLEAR     61  54  77 CALM      30.13S
MOORHEAD       CLEAR     57  57 100 CALM      30.12S
PARK RAPIDS    CLEAR     53  51  93 CALM      30.10S
$$
MNZ006-009>011-018-025>026-301000-
   North Central Minnesota

CITY           SKY/WX    TMP DP  RH WIND       PRES   REMARKS
BAUDETTE       CLEAR     59  55  87 W6        30.07S
FLAG ISLAND    CLEAR     63  55  77 NW13      30.05S
INTL FALLS     CLEAR     50  48  93 CALM      30.05S
WASKISH        CLEAR     61  55  82 NW6       30.07S
BIG FORK         N/A     52  50  93 SW1       30.07S
LONGVILLE      CLEAR     54  54 100 CALM      30.07F FOG
GRAND RAPIDS   MOCLDY    54  52  94 CALM      30.07S VSB 1/2
CRANE LAKE     CLEAR     46  46 100 CALM      30.07S FOG
ORR            CLEAR     50  48  93 CALM      30.04S FOG
COOK           CLEAR     48  48 100 CALM      30.07S
$$
MNZ012-019>021-037-301000-
   Northeast Minnesota

CITY           SKY/WX    TMP DP  RH WIND       PRES   REMARKS
DULUTH         CLEAR     54  51  90 CALM      30.07R
ELY            FOG       46  46 100 CALM      30.07S VSB 1/4
HIBBING        PTCLDY    48  46  93 CALM      30.07S FOG
EVELETH        FOG       45  45 100 CALM      30.08R VSB 1/4
DULUTH HARBOR  CLEAR     55  54  94 E3        30.07R
TWO HARBORS    CLEAR     50  45  81 CALM      30.05S
SILVER BAY     CLEAR     46  46 100 CALM      30.05S
GRAND MARAIS     N/A     50  47  89 NW3       30.04R
G MARAIS ARPRT CLEAR     43  39  87 W3        30.07R
$$
MNZ029>031-032-039>041-046>048-054>057-064-301000-
   West Central Minnesota

CITY           SKY/WX    TMP DP  RH WIND       PRES   REMARKS
FERGUS FALLS   CLEAR     55  54  94 CALM      30.13R
WHEATON        CLEAR     55  54  94 CALM      30.14S
MORRIS         CLEAR     52  52 100 W6        30.11S
ALEXANDRIA     CLEAR     60  56  86 NW3       30.12F
ELBOW LAKE     FAIR      55  53  95 W5        30.12S
WADENA         CLEAR     55  54  94 W3        30.10S
GLENWOOD       CLEAR     57  55  94 NW7       30.12S
APPLETON       CLEAR     55  52  88 W5        30.11S
BENSON         CLEAR     52  52 100 CALM      30.12R
ORTONVILLE     CLEAR     57  54  88 CALM      30.12S
MADISON        CLEAR     55  52  88 W6        30.12S
WILLMAR        FAIR      57  54  88 NW3       30.12S
$$
MNZ033>034-036-042>043-049>051-058-059-301000-
   Central Minnesota

CITY           SKY/WX    TMP DP  RH WIND       PRES   REMARKS
ST CLOUD       CLEAR     57  54  89 NW5       30.08S
SAUK CENTRE    FAIR      54  52  94 CALM      30.11S
PAYNESVILLE    CLEAR     51  51 100 SW5       30.11R
AITKIN         HAZE      55  50  82 CALM      30.06S VSB 1
PINE RIVER     CLEAR     54  52  94 CALM      30.12R
BRAINERD       CLEAR     53  52  96 CALM      30.08S
STAPLES        CLEAR     55  54  94 CALM      30.10S
LONG PRAIRIE   FAIR      59  52  77 NW5       30.10S
LITTLE FALLS   CLEAR     54  52  94 CALM      30.09S
LITCHFIELD       N/A     63  59  88 W5        30.10S
BUFFALO        CLEAR     60  55  81 CALM      30.09R
MAPLE LAKE     CLEAR     59  56  91 CALM      30.09S
$$
MNZ037-044-045-052-053-301000-
   East Central Minnesota

CITY           SKY/WX    TMP DP  RH WIND       PRES   REMARKS
PRINCETON      CLEAR     54  54 100 CALM      30.07S
MORA             N/A     54  52  94 CALM      30.08S FOG
CAMBRIDGE      PTCLDY    59  52  77 CALM      30.05R
RUSH CITY      MOCLDY    53  52  95 CALM      30.07R
MOOSE LAKE     CLEAR     54  54 100 CALM      30.05R
HINCKLEY       FAIR      54  54 100 CALM      30.07R
CLOQUET        CLEAR     52  48  87 NW5       30.07S FOG
MCGREGOR       MOCLDY    54  54 100 CALM      30.07S
$$
MNZ071>073-080-081-089-090-097-098-301000-
   Southwest Minnesota

CITY           SKY/WX    TMP DP  RH WIND       PRES   REMARKS
MONTEVIDEO     CLEAR     57  54  88 NW6       30.12S
GRANITE FALLS  CLEAR     53  51  95 W6        30.13S
CANBY          CLEAR     56  52  87 W6        30.14S
MARSHALL       CLEAR     54  50  87 W6        30.12R
REDWOOD FALLS  CLEAR     58  54  86 W7        30.10S
OLIVIA         CLEAR     57  54  88 W3        30.11R
PIPESTONE      CLEAR     55  54  94 CALM      30.14F
WINDOM         CLEAR     54  52  94 W6        30.13S
WORTHINGTON    CLEAR     54  50  87 W3        30.14F
JACKSON        CLEAR     54  50  87 W3        30.13S
TRACY          CLEAR     59  54  82 W6        30.13S
SLAYTON        CLEAR     54  52  91 CALM      30.14F
$$
MNZ065>067-074>077-082>085-091>093-301000-
   South Central Minnesota

CITY           SKY/WX    TMP DP  RH WIND       PRES   REMARKS
MANKATO        CLEAR     57  52  82 NW3       30.09R
NEW ULM        CLEAR     55  55 100 W6        30.10R
ST JAMES       CLEAR     57  54  88 W5        30.12R
FAIRMONT       CLEAR     57  50  77 NW7       30.11S
GLENCOE        CLEAR     59  54  83 CALM      30.08S
FARIBAULT      CLEAR     57  54  88 CALM      30.07S
OWATONNA       CLEAR     54  52  94 CALM      30.08S
WASECA         CLEAR     50  46  87 SW3       30.10R
ALBERT LEA     CLEAR     55  55 100 CALM      30.09S
$$
MNZ078>079-086>088-094>096-301000-
   Southeast Minnesota

CITY           SKY/WX    TMP DP  RH WIND       PRES   REMARKS
ROCHESTER      CLEAR     58  55  90 W7        30.07S
RED WING       CLEAR     55  54  94 CALM      30.04S
STANTON        CLEAR     58  54  87 CALM      30.05S
DODGE CENTER   PTCLDY    55  54  94 W7        30.07S
WINONA         MOCLDY    59  57  94 CALM      30.05R
AUSTIN         CLEAR     57  54  88 CALM      30.07S
PRESTON        CLEAR     57  57 100 NW6       30.07R
$$
ABBREVIATIONS USED IN REMARKS
   TC - TEMPERATURES IN CELSIUS
  WCI - WIND CHILL INDEX
   HX - HEAT INDEX
  VSB - VISIBILITY
$$



USA.gov is the U.S. government's official web portal to all federal, state and local government web resources and services.